#timestamp,LO_Frequency,Hit,StdDev 
1560546015.3,286047002.2,N
1560546035.1,286047004.0,N
1560546055.9,286047003.4,N
1560546075.7,286047003.8,N
1560546095.5,286047004.0,N
1560546115.4,286047003.2,N
1560546135.2,286047004.4,N
1560546155.0,286047004.3,N
1560546155.9,286047004.3,N
1560546175.8,286047004.4,N
1560546195.6,286047004.0,N
1560546215.5,286047004.3,N
1560546235.3,286047001.8,N
1560546255.1,286047003.6,N
1560546275.9,286047003.8,Y
1560546295.7,286046998.2,P
1560546315.5,286046998.5,N
1560546335.4,286046998.5,N
1560546355.2,286046998.1,N
1560546375.1,286046999.4,N
1560546376.0,286046999.4,N
1560546395.8,286046999.5,N
1560546415.6,286046999.1,N
1560546435.5,286046998.3,N
1560546455.3,286046999.7,N
1560546475.1,286047002.0,N
1560546495.9,286047001.3,N
1560546515.7,286047003.3,N
1560546535.6,286047004.2,N
1560546555.4,286047002.6,N
1560546575.2,286047004.3,N
1560546595.1,286047004.4,N
1560546596.0,286047004.4,N
1560546615.8,286047003.9,N
1560546635.7,286047005.9,N
1560546655.5,286047001.3,N
1560546675.3,286047000.2,N
1560546695.2,286047002.1,N
1560546715.0,286046999.7,N
1560546715.9,286046999.7,N
1560546735.7,286047000.2,N
1560546755.6,286046998.6,N
1560546775.4,286047000.7,N
1560546795.3,286047001.0,N
1560546815.1,286047000.7,N
1560546816.0,286047000.7,N
1560546835.8,286046998.3,N
1560546855.7,286047001.0,N
1560546875.5,286046998.3,N
1560546895.3,286046998.8,N
1560546915.2,286046998.9,N
1560546935.0,286046999.4,N
1560546935.9,286046999.4,N
1560546955.8,286046998.9,N
1560546975.6,286046998.5,N
1560546995.4,286047001.2,N
1560547015.3,286046999.4,N
1560547035.1,286046996.9,N
1560547055.9,286046996.5,N
1560547075.7,286046996.8,N
1560547095.5,286046995.1,N
1560547115.4,286046995.0,N
1560547135.2,286046995.9,N
1560547155.0,286046995.9,N
1560547156.0,286046995.9,N
1560547175.8,286046994.9,N
1560547195.6,286046993.3,Y
1560547215.5,286046995.4,P
1560547235.3,286046995.1,P
1560547255.1,286046995.1,P
1560547275.9,286046998.0,N
1560547295.7,286046994.9,Y
1560547315.6,286047000.3,P
1560547335.4,286047000.2,N
1560547355.2,286047000.7,N
1560547375.1,286047000.6,N
1560547376.0,286047000.6,N
1560547395.8,286047002.8,N
1560547415.7,286047002.3,N
1560547435.5,286047002.5,N
1560547455.3,286047004.2,N
1560547475.2,286047001.6,N
1560547495.0,286047001.7,N
1560547495.9,286047001.7,N
1560547515.7,286047003.7,N
1560547535.6,286047004.2,N
1560547555.4,286047002.6,N
1560547575.3,286047002.6,N
1560547595.1,286047002.8,N
1560547596.0,286047002.8,N
1560547615.8,286047002.8,N
1560547635.7,286047001.7,N
1560547655.5,286047002.3,N
1560547675.3,286047001.7,N
1560547695.2,286047002.1,N
1560547745.1,286046998.5,E
1560547755.9,286047000.7,N
1560547775.7,286047002.7,P
1560547795.5,286047002.2,N
1560547815.4,286047001.4,N
1560547835.2,286047001.5,N
1560547855.1,286047002.5,Y
1560547856.0,286047002.5,P
1560547875.8,286046998.4,P
1560547895.6,286046998.2,N
1560547915.5,286047000.9,N
1560547935.3,286047002.3,N
1560547955.1,286047002.1,N
1560547975.9,286046999.7,N
1560547995.7,286047001.0,N
1560548015.6,286046998.1,N
1560548035.4,286046999.0,N
1560548055.2,286046996.9,N
1560548075.1,286046999.6,N
1560548076.0,286046999.6,N
1560548095.8,286047000.4,N
1560548115.6,286047000.7,N
1560548135.5,286047000.3,N
1560548155.3,286046998.2,N
1560548175.2,286047000.4,N
1560548195.9,286047000.3,N
1560548215.7,286047001.9,N
1560548235.6,286047001.9,N
1560548255.4,286047001.9,N
1560548275.2,286047000.8,N
1560548295.1,286047000.3,N
1560548296.0,286047000.3,N
1560548315.8,286047000.1,N
1560548335.7,286047001.2,N
1560548355.5,286047000.4,N
1560548375.3,286047000.9,N
1560548395.2,286047000.6,N
1560548415.9,286047000.5,N
1560548435.7,286047001.0,N
1560548455.6,286047000.1,N
1560548475.4,286047000.1,N
1560548495.2,286047001.5,N
1560548515.1,286047004.3,Y
1560548516.0,286047004.3,P
1560548535.8,286047001.8,N
1560548555.7,286047001.5,N
1560548575.5,286047004.0,N
1560548595.3,286047003.1,N
1560548615.2,286047003.4,N
1560548635.0,286047003.9,N
1560548635.9,286047003.9,N
1560548655.8,286047002.5,N
1560548675.6,286047002.0,N
1560548695.4,286047002.0,N
1560548715.3,286047000.1,N
1560548735.1,286046999.7,N
1560548755.8,286047001.3,N
1560548775.7,286047002.8,N
1560548795.5,286047002.4,N
1560548815.4,286047002.1,N
1560548835.2,286047001.7,N
1560548855.0,286047004.0,Y
1560548855.9,286047004.0,P
1560548875.8,286046998.5,N
1560548895.6,286047000.4,N
1560548915.5,286047001.1,N
1560548935.3,286047000.0,N
1560548955.1,286047000.3,N
1560548975.9,286047001.0,N
1560548995.7,286047000.4,N
1560549015.5,286047000.9,N
1560549035.4,286047000.3,N
1560549055.2,286047002.4,N
1560549075.1,286047000.1,N
1560549076.0,286047000.1,N
1560549095.8,286046999.8,N
1560549115.6,286046999.9,N
1560549135.5,286047002.2,N
1560549155.3,286046999.8,N
1560549175.1,286047002.4,N
1560549195.9,286047000.4,N
1560549215.7,286047000.6,N
1560549235.6,286047000.5,N
1560549255.4,286046999.9,N
1560549275.2,286047000.3,N
1560549295.1,286047000.0,N
1560549296.0,286047000.0,N
1560549315.8,286047001.9,N
1560549335.6,286047004.4,Y
1560549355.5,286047003.3,P
1560549375.3,286047001.3,N
1560549395.2,286047001.9,N
1560549415.9,286047002.4,N
1560549435.7,286047002.8,Y
1560549455.6,286046998.8,P
1560549475.4,286046998.6,N
1560549495.2,286046999.1,N
1560549515.1,286046999.0,N
1560549516.0,286046999.0,N
1560549535.8,286046999.4,N
1560549555.7,286046998.9,N
1560549575.5,286046998.9,N
1560549595.3,286046998.7,N
